Regional Weather Roundup
Issued by NWS

Home | Current Version | Previous Version | Graphics & Text | Print | Product List | Glossary On
Versions: 1 2 3 4 5 6 7 8 9 10 11 12 13 14 15 16 17 18 19 20 21 22 23 24 25 26 27 28 29 30 31 32 33 34 35 36 37 38 39 40 41 42 43 44 45 46 47 48 49 50
000
ASUS43 KLOT 021603
RWRIL

ILLINOIS REGIONAL WEATHER ROUNDUP
NATIONAL WEATHER SERVICE CHICAGO/ROMEOVILLE IL
1100 AM CDT MON MAY 02 2016

NOTE: "FAIR" INDICATES FEW OR NO CLOUDS BELOW 12,000 FEET WITH NO
SIGNIFICANT WEATHER AND/OR OBSTRUCTIONS TO VISIBILITY.

* THESE STATIONS ARE NOT UNDER NWS QUALITY CONTROL. THEY ALSO MAY NOT
  REPORT WEATHER SUCH AS PRECIPITATION OR FOG.

ILZ001-002-007-009-015-016-024-021700-
NORTHWEST ILLINOIS

CITY           SKY/WX    TMP DP  RH WIND       PRES   REMARKS
MOLINE         CLOUDY    54  45  71 N8        30.08S
STERLING*      PTSUNNY   55  45  67 NE7       30.08S
$$

ILZ003-004-008-010-011-017-018-021700-
NORTH CENTRAL ILLINOIS

CITY           SKY/WX    TMP DP  RH WIND       PRES   REMARKS
ROCKFORD       PTSUNNY   58  39  49 NE12      30.09F
FREEPORT*      SUNNY     54  41  61 NE7       30.10S
ROCHELLE*      MOSUNNY   54  42  63 NE15      30.07S
DE KALB*       MOSUNNY   55  42  60 NE16      30.06F
$$

ILZ005-006-012>014-019>023-021700-
NORTHEAST ILLINOIS

CITY           SKY/WX    TMP DP  RH WIND       PRES   REMARKS
CHICAGO-OHARE  PTSUNNY   52  37  56 NE14      30.05F
CHICAGO-MIDWAY PTSUNNY   52  36  54 NE17      30.04F
AURORA         CLOUDY    56  37  49 NE18G28   30.05F
LANSING*       MOSUNNY   49  40  71 NE14      30.04S
WAUKEGAN       SUNNY     53  38  56 NE10      30.07S
DUPAGE AIRPORT MOSUNNY   55  36  48 NE17G25   30.04F
WHEELING       MOSUNNY   52  37  56 NE14      30.07F
NORTHERLY ISL    N/A     48  40  73 NW14        N/A
NORTHERLY ISL    N/A     48  40  73 NW14        N/A
$$

LMZ740>746-021700-
SOUTHERN LAKE MICHIGAN

STATION/POSITION SKY/WX   TEMP    WIND        PRES    VSBY  WAVE
                          AIR SEA DIR/SP/G                  HT/PER
                          (F)     (DEG/KT/KT) (MB)    (MI)  (FT/S)
SOUTHERN BUOY              41 40  360/  8/  8 1018.1          1/ 4
HARRISON CRIB              45     360/ 14/ 16   N/A
BURNHAM HARBOR             48     350/ 12/ 14   N/A
CALUMET HARBOR             47     340/ 11/ 16 1017.3S
BURNS HARBOR               45      20/ 16/ 17 1017.3S
MICHIGAN CITY              45      10/ 13/ 13   N/A
ST. JOSEPH                 46 47                N/A           2/ 4
$$

ILZ025>027-034>036-040-047-049-050-058-095>099-021700-
WEST-CENTRAL ILLINOIS

CITY           SKY/WX    TMP DP  RH WIND       PRES   REMARKS
QUINCY         CLOUDY    53  47  79 N8        30.06F
MACOMB*        CLOUDY    51  47  87 N9        30.09S
PITTSFIELD*    CLOUDY    53  48  81 N8        30.08S
$$

ILZ028>032-037-038-041>044-048-051>054-059>061-021700-
CENTRAL ILLINOIS

CITY           SKY/WX    TMP DP  RH WIND       PRES   REMARKS
BLOOMINGTON    CLOUDY    51  47  86 NE9       30.05S
DECATUR        CLOUDY    53  46  77 N9        30.04S
PEORIA         CLOUDY    53  44  71 NE8       30.06S
SPRINGFIELD    CLOUDY    53  47  79 N8        30.06R
TAYLORVILLE    NOT AVBL
$$

ILZ033-039-045-046-055>057-062-063-021700-
EAST-CENTRAL ILLINOIS

CITY           SKY/WX    TMP DP  RH WIND       PRES   REMARKS
CHAMPAIGN      CLOUDY    50  46  86 N9        30.02F
MATTOON        LGT RAIN  50  46  86 N8        30.03R FOG
$$

ILZ079-100>102-021700-
SOUTHWEST ILLINOIS

CITY           SKY/WX    TMP DP  RH WIND       PRES   REMARKS
BELLEVILLE     MOSUNNY   56  49  76 VRB7      30.04R
CAHOKIA*       CLOUDY    56  47  71 NW7       30.05S
SPARTA*        CLOUDY    55  47  74 NW7       30.06R
$$

ILZ064>066-069>071-074>076-080>082-084>086-088>090-092>094-021700-
SOUTH-CENTRAL ILLINOIS

CITY           SKY/WX    TMP DP  RH WIND       PRES   REMARKS
CARBONDALE     CLOUDY    58  47  66 NW7       30.04R
EFFINGHAM*     CLOUDY    54  48  81 NW6       30.05S
MARION         CLOUDY    59  48  67 NW8       30.05R
MT. VERNON     CLOUDY    55  46  71 W5        30.05R
SALEM*         CLOUDY    56  49  76 NW5       30.05R
$$

ILZ067-068-072-073-078-083-087-091-021700-
SOUTHEAST ILLINOIS

CITY           SKY/WX    TMP DP  RH WIND       PRES   REMARKS
LAWRENCEVILLE  CLOUDY    56  49  77 NW12      30.02R
FLORA*         CLOUDY    55  48  76 NW7       30.04R
HARRISBURG*    CLOUDY    59  50  71 W5        30.05R
ROBINSON*      CLOUDY    54  48  81 N6        30.03S
$$

ABBREVIATIONS USED IN REMARKS
   TC - TEMPERATURE IN CELSIUS
  WCI - WIND CHILL INDEX
   HX - HEAT INDEX
  VSB - VISIBILITY
$$





USA.gov is the U.S. government's official web portal to all federal, state and local government web resources and services.